ARA235 LROP-LOWI

Flight info

Callsign ARA235
Flight time N/A
Altitude 36000
Route SOKRU DCT MOPUG DCT GOTAR DCT NANIT NANIT2A
Aircraft B737/M-SDE2E3FGHIRWXY/LB1

Departure

Time N/A
Airport Bucharest Henri Coandă International Airport (LROP)

Arrival

Time 2026-04-30 11:33
Airport Innsbruck Airport (LOWI)
Time Latitude Longitude Altitude Speed Heading
2026-04-30 11:17 47.29179 10.94111 18429 ft 391 kts 308°
2026-04-30 11:17 47.30943 10.90945 18441 ft 408 kts 310°
2026-04-30 11:17 47.32837 10.87736 18445 ft 420 kts 311°
2026-04-30 11:18 47.34762 10.84546 18433 ft 414 kts 311°
2026-04-30 11:18 47.38604 10.78211 18404 ft 414 kts 312°
2026-04-30 11:18 47.40521 10.75049 18408 ft 414 kts 312°
2026-04-30 11:19 47.42289 10.71692 18374 ft 417 kts 298°
2026-04-30 11:19 47.43162 10.67688 18369 ft 419 kts 277°
2026-04-30 11:19 47.42980 10.63397 18390 ft 421 kts 259°
2026-04-30 11:19 47.42149 10.59263 18314 ft 416 kts 252°
2026-04-30 11:20 47.41192 10.55301 18055 ft 402 kts 251°
2026-04-30 11:20 47.40237 10.51526 17829 ft 384 kts 251°
2026-04-30 11:20 47.39312 10.47915 17595 ft 369 kts 251°
2026-04-30 11:20 47.38411 10.44432 16934 ft 360 kts 251°
2026-04-30 11:21 47.37523 10.41000 16141 ft 355 kts 251°
2026-04-30 11:21 47.36632 10.37631 15367 ft 351 kts 246°
2026-04-30 11:21 47.35159 10.34785 14556 ft 351 kts 219°
2026-04-30 11:21 47.32995 10.33224 13834 ft 348 kts 192°
2026-04-30 11:22 47.30612 10.33231 13015 ft 343 kts 164°
2026-04-30 11:22 47.28519 10.34786 12255 ft 335 kts 137°
2026-04-30 11:22 47.27021 10.37365 11495 ft 330 kts 123°
2026-04-30 11:22 47.25754 10.40169 10783 ft 326 kts 122°
2026-04-30 11:23 47.24577 10.42908 10517 ft 306 kts 121°
2026-04-30 11:23 47.23712 10.45710 10398 ft 312 kts 98°
2026-04-30 11:23 47.25065 10.51271 10353 ft 279 kts 47°
2026-04-30 11:24 47.26418 10.53223 10348 ft 265 kts 45°
2026-04-30 11:24 47.27544 10.55335 10381 ft 262 kts 61°
2026-04-30 11:24 47.28233 10.57834 10325 ft 265 kts 75°
2026-04-30 11:25 47.28831 10.63174 10378 ft 261 kts 84°
2026-04-30 11:25 47.29015 10.65777 10392 ft 254 kts 84°
2026-04-30 11:25 47.29298 10.70974 10411 ft 257 kts 86°
2026-04-30 11:26 47.29557 10.76315 10423 ft 267 kts 86°
2026-04-30 11:26 47.29687 10.79064 10385 ft 270 kts 85°
2026-04-30 11:26 47.29823 10.81797 10318 ft 268 kts 85°
2026-04-30 11:27 47.29963 10.84615 9868 ft 278 kts 85°
2026-04-30 11:27 47.30103 10.87429 9402 ft 279 kts 85°
2026-04-30 11:27 47.30244 10.90281 8943 ft 280 kts 85°
2026-04-30 11:27 47.30385 10.93161 8477 ft 281 kts 85°
2026-04-30 11:28 47.30655 10.98721 7711 ft 268 kts 86°
2026-04-30 11:28 47.30783 11.01378 7656 ft 250 kts 86°
2026-04-30 11:28 47.30898 11.03825 7666 ft 229 kts 86°
2026-04-30 11:29 47.30980 11.06094 7674 ft 216 kts 90°
2026-04-30 11:29 47.30765 11.08226 7564 ft 205 kts 108°
2026-04-30 11:29 47.29616 11.11940 6316 ft 213 kts 111°
2026-04-30 11:30 47.28365 11.16064 4947 ft 210 kts 111°
2026-04-30 11:30 47.27788 11.17989 4682 ft 188 kts 110°
2026-04-30 11:30 47.27328 11.19660 4437 ft 170 kts 113°
2026-04-30 11:31 47.26824 11.21164 4126 ft 157 kts 113°
2026-04-30 11:31 47.26547 11.22678 3556 ft 156 kts 101°
2026-04-30 11:31 47.26292 11.24127 3419 ft 137 kts 108°
2026-04-30 11:31 47.25938 11.25475 3304 ft 146 kts 111°
2026-04-30 11:32 47.25589 11.26868 3077 ft 143 kts 106°
2026-04-30 11:32 47.25414 11.28291 2827 ft 138 kts 91°
2026-04-30 11:32 47.25516 11.29660 2635 ft 134 kts 80°
2026-04-30 11:33 47.25810 11.32451 2076 ft 136 kts 81°
2026-04-30 11:33 47.25951 11.33772 1911 ft 122 kts 82°
2026-04-30 11:33 47.26062 11.34764 1912 ft 68 kts 81°
2026-04-30 11:33 47.26107 11.35166 1912 ft 24 kts 80°
2026-04-30 11:34 47.26016 11.35270 1912 ft 19 kts 172°
2026-04-30 11:34 47.25912 11.35277 1913 ft 7 kts 218°
2026-04-30 11:34 47.25897 11.35215 1913 ft 6 kts 260°
2026-04-30 11:34 47.25887 11.35164 1907 ft 2 kts 223°
2026-04-30 11:35 47.25882 11.35162 1907 ft 0 kts 201°
2026-04-30 11:35 47.25859 11.35165 1908 ft 7 kts 168°
2026-04-30 11:35 47.25835 11.35169 1902 ft 0 kts 169°
2026-04-30 11:37 47.25835 11.35168 1902 ft 0 kts 169°
2026-04-30 11:38 47.25835 11.35169 1913 ft 0 kts 169°
2026-04-30 11:38 47.25835 11.35168 1913 ft 0 kts 169°
2026-04-30 11:39 47.25835 11.35169 1913 ft 0 kts 169°
2026-04-30 11:39 47.25835 11.35168 1913 ft 0 kts 169°